User: anonymous   Login
Location: Nairn
(57.5833°N, 3.8667°W)
Time: 15:59:45
(UTC+00:00)
Language:

ERBS - Orbit

View from above orbital plane
View from above orbital plane
View from above satellite
View from above satellite

Ground track
Ground track

The orbit data is extracted from the following two-line orbital elements,

1 15354U 84108B   20292.40014458 +.00003663 +00000-0 +71229-4 0  9993
2 15354 057.0052 261.4473 0003972 308.8893 051.1811 15.50286797986624
Epoch (UTC): 18 October 2020 09:36:12
Eccentricity: 0.0003972
inclination: 57.0052°
perigee height: 413 km
apogee height: 418 km
right ascension of ascending node: 261.4473°
argument of perigee: 308.8893°
revolutions per day: 15.50286797
mean anomaly at epoch: 51.1811°
orbit number at epoch: 98662

The dashed part of the orbit path shows where the satellite is in the earth's shadow,  

DLR